Time,TemperatureF,DewpointF,PressureIn,WindDirection,WindDirectionDegrees,WindSpeedMPH,WindSpeedGustMPH,Humidity,HourlyPrecipIn,Conditions,Clouds,dailyrainin,SoftwareType,DateUTC
2013-12-12 00:02:00,21.9,17.0,30.13,SW,217,0.0,2.0,81,0.00,,,0.00,weatherlink.com 1.10,2013-12-12 05:02:00,
2013-12-12 00:17:00,21.5,17.0,30.13,SW,235,0.0,2.0,82,0.00,,,0.00,weatherlink.com 1.10,2013-12-12 05:17:00,
2013-12-12 00:32:00,21.2,17.0,30.13,SW,234,0.0,1.0,83,0.00,,,0.00,weatherlink.com 1.10,2013-12-12 05:32:00,
2013-12-12 00:47:00,20.7,17.0,30.13,WSW,244,0.0,1.0,84,0.00,,,0.00,weatherlink.com 1.10,2013-12-12 05:47:00,
2013-12-12 01:02:00,20.6,17.0,30.13,West,273,0.0,1.0,84,0.00,,,0.00,weatherlink.com 1.10,2013-12-12 06:02:00,
2013-12-12 01:17:00,20.6,17.0,30.14,SSW,210,0.0,2.0,84,0.00,,,0.00,weatherlink.com 1.10,2013-12-12 06:17:00,
2013-12-12 01:32:00,21.1,17.0,30.14,WSW,241,2.0,3.0,84,0.00,,,0.00,weatherlink.com 1.10,2013-12-12 06:32:00,
2013-12-12 01:47:00,22.3,17.0,30.14,SW,232,4.0,7.0,81,0.00,,,0.00,weatherlink.com 1.10,2013-12-12 06:47:00,
2013-12-12 02:02:00,22.6,17.0,30.15,West,281,1.0,2.0,79,0.00,,,0.00,weatherlink.com 1.10,2013-12-12 07:02:00,
2013-12-12 02:17:00,22.2,17.0,30.16,WSW,240,0.0,1.0,79,0.00,,,0.00,weatherlink.com 1.10,2013-12-12 07:17:00,
2013-12-12 02:32:00,21.6,17.0,30.16,WNW,303,0.0,1.0,81,0.00,,,0.00,weatherlink.com 1.10,2013-12-12 07:32:00,
2013-12-12 02:47:00,21.6,17.0,30.17,NNE,26,0.0,5.0,82,0.00,,,0.00,weatherlink.com 1.10,2013-12-12 07:47:00,
2013-12-12 03:02:00,22.5,17.0,30.17,West,267,2.0,10.0,80,0.00,,,0.00,weatherlink.com 1.10,2013-12-12 08:02:00,
2013-12-12 03:17:00,22.4,17.0,30.18,NW,321,0.0,6.0,78,0.00,,,0.00,weatherlink.com 1.10,2013-12-12 08:17:00,
2013-12-12 03:32:00,22.3,16.0,30.18,NW,317,2.0,4.0,77,0.00,,,0.00,weatherlink.com 1.10,2013-12-12 08:32:00,
2013-12-12 03:47:00,22.4,16.0,30.18,WSW,250,1.0,2.0,75,0.00,,,0.00,weatherlink.com 1.10,2013-12-12 08:47:00,
2013-12-12 04:02:00,22.6,15.0,30.18,NW,311,0.0,4.0,73,0.00,,,0.00,weatherlink.com 1.10,2013-12-12 09:02:00,
2013-12-12 04:17:00,22.7,15.0,30.18,West,275,0.0,3.0,72,0.00,,,0.00,weatherlink.com 1.10,2013-12-12 09:17:00,
2013-12-12 04:32:00,22.4,15.0,30.18,NW,307,1.0,2.0,72,0.00,,,0.00,weatherlink.com 1.10,2013-12-12 09:32:00,
2013-12-12 04:47:00,22.1,14.0,30.19,NW,318,0.0,1.0,72,0.00,,,0.00,weatherlink.com 1.10,2013-12-12 09:47:00,
2013-12-12 05:02:00,22.1,14.0,30.19,NNW,331,0.0,2.0,72,0.00,,,0.00,weatherlink.com 1.10,2013-12-12 10:02:00,
2013-12-12 05:17:00,21.7,15.0,30.20,NNW,331,0.0,0.0,74,0.00,,,0.00,weatherlink.com 1.10,2013-12-12 10:17:00,
2013-12-12 05:32:00,21.1,15.0,30.20,West,279,0.0,1.0,76,0.00,,,0.00,weatherlink.com 1.10,2013-12-12 10:32:00,
2013-12-12 05:47:00,20.5,15.0,30.21,NNE,19,2.0,2.0,78,0.00,,,0.00,weatherlink.com 1.10,2013-12-12 10:47:00,
2013-12-12 06:03:00,20.0,14.0,30.21,West,260,1.0,1.0,78,0.00,,,0.00,weatherlink.com 1.10,2013-12-12 11:03:00,
2013-12-12 06:18:00,19.8,12.0,30.22,WNW,295,0.0,5.0,73,0.00,,,0.00,weatherlink.com 1.10,2013-12-12 11:18:00,
2013-12-12 06:33:00,19.6,11.0,30.22,NNW,348,1.0,5.0,68,0.00,,,0.00,weatherlink.com 1.10,2013-12-12 11:33:00,
2013-12-12 06:48:00,19.3,10.0,30.23,WNW,287,0.0,3.0,68,0.00,,,0.00,weatherlink.com 1.10,2013-12-12 11:48:00,
2013-12-12 07:03:00,18.8,11.0,30.23,NW,312,0.0,4.0,70,0.00,,,0.00,weatherlink.com 1.10,2013-12-12 12:03:00,
2013-12-12 07:18:00,18.3,10.0,30.24,West,281,1.0,1.0,71,0.00,,,0.00,weatherlink.com 1.10,2013-12-12 12:18:00,
2013-12-12 07:33:00,18.0,11.0,30.24,WSW,240,1.0,2.0,73,0.00,,,0.00,weatherlink.com 1.10,2013-12-12 12:33:00,
2013-12-12 07:48:00,18.4,11.0,30.25,SW,221,0.0,3.0,73,0.00,,,0.00,weatherlink.com 1.10,2013-12-12 12:48:00,
2013-12-12 08:03:00,19.4,11.0,30.26,NW,325,2.0,5.0,70,0.00,,,0.00,weatherlink.com 1.10,2013-12-12 13:03:00,
2013-12-12 08:18:00,20.3,12.0,30.26,WSW,242,0.0,4.0,69,0.00,,,0.00,weatherlink.com 1.10,2013-12-12 13:18:00,
2013-12-12 08:33:00,21.3,12.0,30.27,WNW,288,0.0,3.0,66,0.00,,,0.00,weatherlink.com 1.10,2013-12-12 13:33:00,
2013-12-12 08:48:00,21.3,12.0,30.27,West,269,3.0,5.0,66,0.00,,,0.00,weatherlink.com 1.10,2013-12-12 13:48:00,
2013-12-12 09:04:00,21.9,11.0,30.27,WNW,283,4.0,7.0,62,0.00,,,0.00,weatherlink.com 1.10,2013-12-12 14:04:00,
2013-12-12 09:18:00,22.3,9.0,30.27,WSW,248,2.0,7.0,58,0.00,,,0.00,weatherlink.com 1.10,2013-12-12 14:18:00,
2013-12-12 09:33:00,22.3,7.0,30.27,WNW,283,2.0,8.0,51,0.00,,,0.00,weatherlink.com 1.10,2013-12-12 14:33:00,
2013-12-12 09:48:00,22.7,6.0,30.27,NNW,338,3.0,6.0,49,0.00,,,0.00,weatherlink.com 1.10,2013-12-12 14:48:00,
2013-12-12 10:03:00,23.0,6.0,30.27,NNW,332,4.0,9.0,48,0.00,,,0.00,weatherlink.com 1.10,2013-12-12 15:03:00,
2013-12-12 10:18:00,22.9,4.0,30.27,West,272,3.0,10.0,45,0.00,,,0.00,weatherlink.com 1.10,2013-12-12 15:18:00,
2013-12-12 10:33:00,22.9,3.0,30.25,WNW,292,5.0,8.0,43,0.00,,,0.00,weatherlink.com 1.10,2013-12-12 15:33:00,
2013-12-12 10:48:00,23.1,2.0,30.25,NNW,334,4.0,14.0,40,0.00,,,0.00,weatherlink.com 1.10,2013-12-12 15:48:00,
2013-12-12 11:03:00,22.9,2.0,30.24,SSW,210,6.0,14.0,40,0.00,,,0.00,weatherlink.com 1.10,2013-12-12 16:03:00,
2013-12-12 11:18:00,23.0,1.0,30.23,West,280,1.0,10.0,39,0.00,,,0.00,weatherlink.com 1.10,2013-12-12 16:18:00,
2013-12-12 11:33:00,23.2,2.0,30.23,NNW,336,3.0,10.0,39,0.00,,,0.00,weatherlink.com 1.10,2013-12-12 16:33:00,
2013-12-12 11:48:00,23.7,1.0,30.22,SW,221,3.0,7.0,38,0.00,,,0.00,weatherlink.com 1.10,2013-12-12 16:48:00,
2013-12-12 12:03:00,24.2,2.0,30.21,WNW,301,6.0,6.0,38,0.00,,,0.00,weatherlink.com 1.10,2013-12-12 17:03:00,
2013-12-12 12:18:00,24.0,2.0,30.21,North,11,4.0,10.0,39,0.00,,,0.00,weatherlink.com 1.10,2013-12-12 17:18:00,
2013-12-12 12:33:00,23.9,2.0,30.20,NNW,348,1.0,7.0,39,0.00,,,0.00,weatherlink.com 1.10,2013-12-12 17:33:00,
2013-12-12 12:48:00,24.0,3.0,30.19,WNW,289,1.0,9.0,40,0.00,,,0.00,weatherlink.com 1.10,2013-12-12 17:48:00,
2013-12-12 13:03:00,24.3,3.0,30.19,WNW,299,0.0,8.0,39,0.00,,,0.00,weatherlink.com 1.10,2013-12-12 18:03:00,
2013-12-12 13:18:00,24.5,4.0,30.18,SW,229,1.0,8.0,41,0.00,,,0.00,weatherlink.com 1.10,2013-12-12 18:18:00,
2013-12-12 13:33:00,24.4,3.0,30.18,NNE,30,0.0,8.0,39,0.00,,,0.00,weatherlink.com 1.10,2013-12-12 18:33:00,
2013-12-12 13:48:00,24.9,2.0,30.18,WNW,300,0.0,8.0,38,0.00,,,0.00,weatherlink.com 1.10,2013-12-12 18:48:00,
2013-12-12 14:03:00,24.8,3.0,30.18,SW,226,3.0,6.0,39,0.00,,,0.00,weatherlink.com 1.10,2013-12-12 19:03:00,
2013-12-12 14:19:00,25.0,1.0,30.19,NNW,331,2.0,5.0,36,0.00,,,0.00,weatherlink.com 1.10,2013-12-12 19:19:00,
2013-12-12 14:34:00,25.0,2.0,30.18,SSW,205,0.0,5.0,37,0.00,,,0.00,weatherlink.com 1.10,2013-12-12 19:34:00,
2013-12-12 14:49:00,25.0,3.0,30.19,WNW,294,2.0,7.0,38,0.00,,,0.00,weatherlink.com 1.10,2013-12-12 19:49:00,
2013-12-12 15:04:00,23.9,1.0,30.19,SW,223,0.0,8.0,37,0.00,,,0.00,weatherlink.com 1.10,2013-12-12 20:04:00,
2013-12-12 15:19:00,23.9,2.0,30.19,SW,232,0.0,5.0,38,0.00,,,0.00,weatherlink.com 1.10,2013-12-12 20:19:00,
2013-12-12 15:34:00,23.4,2.0,30.19,WNW,300,0.0,5.0,39,0.00,,,0.00,weatherlink.com 1.10,2013-12-12 20:34:00,
2013-12-12 15:49:00,22.9,1.0,30.19,WSW,239,0.0,4.0,39,0.00,,,0.00,weatherlink.com 1.10,2013-12-12 20:49:00,
2013-12-12 16:04:00,22.4,1.0,30.19,WSW,240,0.0,4.0,40,0.00,,,0.00,weatherlink.com 1.10,2013-12-12 21:04:00,
2013-12-12 16:19:00,21.9,2.0,30.18,WSW,252,0.0,1.0,42,0.00,,,0.00,weatherlink.com 1.10,2013-12-12 21:19:00,
2013-12-12 16:34:00,21.3,2.0,30.18,SW,232,0.0,1.0,43,0.00,,,0.00,weatherlink.com 1.10,2013-12-12 21:34:00,
2013-12-12 16:49:00,21.1,3.0,30.18,SW,228,0.0,2.0,45,0.00,,,0.00,weatherlink.com 1.10,2013-12-12 21:49:00,
2013-12-12 17:04:00,20.6,2.0,30.18,WNW,290,1.0,4.0,45,0.00,,,0.00,weatherlink.com 1.10,2013-12-12 22:04:00,
2013-12-12 17:19:00,20.2,2.0,30.18,WSW,257,0.0,2.0,46,0.00,,,0.00,weatherlink.com 1.10,2013-12-12 22:19:00,
2013-12-12 17:34:00,19.9,2.0,30.18,WSW,240,0.0,2.0,46,0.00,,,0.00,weatherlink.com 1.10,2013-12-12 22:34:00,
2013-12-12 17:49:00,19.6,2.0,30.19,WSW,255,0.0,3.0,47,0.00,,,0.00,weatherlink.com 1.10,2013-12-12 22:49:00,
2013-12-12 18:04:00,19.2,2.0,30.19,WSW,242,0.0,2.0,48,0.00,,,0.00,weatherlink.com 1.10,2013-12-12 23:04:00,
2013-12-12 18:19:00,19.0,3.0,30.19,WSW,242,0.0,2.0,49,0.00,,,0.00,weatherlink.com 1.10,2013-12-12 23:19:00,
2013-12-12 18:34:00,18.8,3.0,30.19,West,263,0.0,3.0,50,0.00,,,0.00,weatherlink.com 1.10,2013-12-12 23:34:00,
2013-12-12 18:49:00,18.5,3.0,30.19,WSW,241,1.0,3.0,50,0.00,,,0.00,weatherlink.com 1.10,2013-12-12 23:49:00,
2013-12-12 19:04:00,18.2,3.0,30.19,SW,223,0.0,2.0,51,0.00,,,0.00,weatherlink.com 1.10,2013-12-13 00:04:00,
2013-12-12 19:19:00,18.3,3.0,30.19,SSW,206,1.0,1.0,52,0.00,,,0.00,weatherlink.com 1.10,2013-12-13 00:19:00,
2013-12-12 19:34:00,18.6,4.0,30.19,SW,228,0.0,3.0,52,0.00,,,0.00,weatherlink.com 1.10,2013-12-13 00:34:00,
2013-12-12 19:49:00,18.0,4.0,30.19,SSW,209,0.0,1.0,54,0.00,,,0.00,weatherlink.com 1.10,2013-12-13 00:49:00,
2013-12-12 20:04:00,17.4,4.0,30.18,SSW,202,0.0,1.0,57,0.00,,,0.00,weatherlink.com 1.10,2013-12-13 01:04:00,
2013-12-12 20:19:00,16.8,4.0,30.18,SW,215,0.0,1.0,58,0.00,,,0.00,weatherlink.com 1.10,2013-12-13 01:19:00,
2013-12-12 20:34:00,16.6,5.0,30.17,SW,219,0.0,1.0,60,0.00,,,0.00,weatherlink.com 1.10,2013-12-13 01:34:00,
2013-12-12 20:49:00,16.3,5.0,30.16,SW,218,0.0,1.0,61,0.00,,,0.00,weatherlink.com 1.10,2013-12-13 01:49:00,
2013-12-12 21:04:00,16.3,5.0,30.15,SW,217,0.0,2.0,61,0.00,,,0.00,weatherlink.com 1.10,2013-12-13 02:04:00,
2013-12-12 21:19:00,15.9,5.0,30.14,SW,223,0.0,1.0,61,0.00,,,0.00,weatherlink.com 1.10,2013-12-13 02:19:00,
2013-12-12 21:34:00,15.5,5.0,30.14,SSW,200,0.0,1.0,63,0.00,,,0.00,weatherlink.com 1.10,2013-12-13 02:34:00,
2013-12-12 21:49:00,15.1,5.0,30.13,SSW,211,0.0,0.0,65,0.00,,,0.00,weatherlink.com 1.10,2013-12-13 02:49:00,
2013-12-12 22:04:00,14.6,5.0,30.13,SSW,211,0.0,1.0,66,0.00,,,0.00,weatherlink.com 1.10,2013-12-13 03:04:00,
2013-12-12 22:19:00,14.6,5.0,30.12,SSW,198,0.0,2.0,66,0.00,,,0.00,weatherlink.com 1.10,2013-12-13 03:19:00,
2013-12-12 22:34:00,14.4,5.0,30.11,SSW,210,0.0,4.0,67,0.00,,,0.00,weatherlink.com 1.10,2013-12-13 03:34:00,
2013-12-12 22:49:00,14.3,6.0,30.10,SW,219,0.0,1.0,68,0.00,,,0.00,weatherlink.com 1.10,2013-12-13 03:49:00,
2013-12-12 23:04:00,14.3,5.0,30.10,SW,219,0.0,1.0,67,0.00,,,0.00,weatherlink.com 1.10,2013-12-13 04:04:00,
2013-12-12 23:19:00,14.3,6.0,30.09,SE,142,0.0,3.0,68,0.00,,,0.00,weatherlink.com 1.10,2013-12-13 04:19:00,
2013-12-12 23:34:00,14.2,5.0,30.08,WSW,238,0.0,1.0,68,0.00,,,0.00,weatherlink.com 1.10,2013-12-13 04:34:00,
2013-12-12 23:49:00,13.9,5.0,30.07,SSW,210,0.0,4.0,69,0.00,,,0.00,weatherlink.com 1.10,2013-12-13 04:49:00,